Skip Navigation LinksHome page > Weather > Current weather Skip Navigation Links

Current Weather

Sarh, Chad

For information only: do not use for flight planning or navigation.
Latest weather
Observation time Tuesday, September 27, 2016 1:00 AM WAT
Local time Tuesday, September 27, 2016 2:59 AM WAT
Flight conditions Visual Meteorological Conditions
Winds
Wind speed calm
Visibility 6.2 mi.
Sky condition
Ceiling unlimited
Sky clear
Temperature 95°F
Dewpoint 73°F
Altimeter 29.97 in.Hg
Derived measurements
Relative humidity 50%
Heat index 105°F
Density altitude 2951 ft.
Remarks
Ceiling and visibility OK.
METAR FTTA 270000Z 00000KT CAVOK 35/23 Q1015

Settings

Location code

InnerDrive.Weather 4.0.5722.1 Release CLR 4.0.30319.34209
Copyright ©2015 Inner Drive Technology. All rights reserved. Portions Copyright ©1986-2015 David Braverman.

Find weather

Site navigation


Skip Navigation Links

Place info

Page info

PayPal - The safer, easier way to pay online!

Return home.

Copyright ©2016 Inner Drive Technology. Purveyors of fine, hand-crafted computer software. Page printed 2016-09-27T01:59:15 UTC.